Location: Blairvadach
(56.2780°N, 6.9720°W)
Time: 21:17:27
(UTC+01:00)

OTV 5 (USA 277) - Pass Details

Date: 27 April 2019
Orbit: 310 x 325 km, 54.5° (Epoch: 08 May)

Event Time Altitude Azimuth Distance (km) Brightness Sun altitude
Rises 00:11:24 0° 267° (W) 2,037 ? -18.4°
Reaches altitude 10° 00:13:22 10° 263° (W) 1,208 ? -18.4°
Enters shadow 00:14:03 16° 260° (W) 933 ? -18.5°
